Year,Month,Day,Hour,Minute,Value (Times are PST for temperature in C)
2014,12,08,00,00,7.40
2014,12,08,00,01,7.40
2014,12,08,00,02,7.40
2014,12,08,00,03,7.40
2014,12,08,00,04,7.40
2014,12,08,00,05,7.40
2014,12,08,00,06,7.40
2014,12,08,00,07,7.40
2014,12,08,00,08,7.40
2014,12,08,00,09,7.40
2014,12,08,00,10,7.40
2014,12,08,00,11,7.40
2014,12,08,00,12,7.40
2014,12,08,00,13,7.40
2014,12,08,00,14,7.40
2014,12,08,00,15,7.40
2014,12,08,00,16,7.40
2014,12,08,00,17,7.30
2014,12,08,00,18,7.30
2014,12,08,00,19,7.30
2014,12,08,00,20,7.30
2014,12,08,00,21,7.30
2014,12,08,00,22,7.30
2014,12,08,00,23,7.30
2014,12,08,00,24,7.30
2014,12,08,00,25,7.30
2014,12,08,00,26,7.30
2014,12,08,00,27,7.30
2014,12,08,00,28,7.30
2014,12,08,00,29,7.30
2014,12,08,00,30,7.30
2014,12,08,00,31,7.30
2014,12,08,00,32,7.30
2014,12,08,00,33,7.30
2014,12,08,00,34,7.30
2014,12,08,00,35,7.30
2014,12,08,00,36,7.30
2014,12,08,00,37,7.30
2014,12,08,00,38,7.30
2014,12,08,00,39,7.30
2014,12,08,00,40,7.20
2014,12,08,00,41,7.20
2014,12,08,00,42,7.20
2014,12,08,00,43,7.20
2014,12,08,00,44,7.20
2014,12,08,00,45,7.20
2014,12,08,00,46,7.20
2014,12,08,00,47,7.20
2014,12,08,00,48,7.20
2014,12,08,00,49,7.20
2014,12,08,00,50,7.20
2014,12,08,00,51,7.20
2014,12,08,00,52,7.20
2014,12,08,00,53,7.20
2014,12,08,00,54,7.20
2014,12,08,00,55,7.20
2014,12,08,00,56,7.20
2014,12,08,00,57,7.20
2014,12,08,00,58,7.30
2014,12,08,00,59,7.30
2014,12,08,01,00,7.30
2014,12,08,01,01,7.30
2014,12,08,01,02,7.30
2014,12,08,01,03,7.30
2014,12,08,01,04,7.30
2014,12,08,01,05,7.30
2014,12,08,01,06,7.30
2014,12,08,01,07,7.30
2014,12,08,01,08,7.30
2014,12,08,01,09,7.40
2014,12,08,01,10,7.40
2014,12,08,01,11,7.40
2014,12,08,01,12,7.40
2014,12,08,01,13,7.40
2014,12,08,01,14,7.40
2014,12,08,01,15,7.40
2014,12,08,01,16,7.40
2014,12,08,01,17,7.40
2014,12,08,01,18,7.40
2014,12,08,01,19,7.40
2014,12,08,01,20,7.40
2014,12,08,01,21,7.40
2014,12,08,01,22,7.40
2014,12,08,01,23,7.40
2014,12,08,01,24,7.40
2014,12,08,01,25,7.40
2014,12,08,01,26,7.40
2014,12,08,01,27,7.40
2014,12,08,01,28,7.40
2014,12,08,01,29,7.40
2014,12,08,01,30,7.40
2014,12,08,01,31,7.30
2014,12,08,01,32,7.30
2014,12,08,01,33,7.30
2014,12,08,01,34,7.30
2014,12,08,01,35,7.30
2014,12,08,01,36,7.30
2014,12,08,01,37,7.30
2014,12,08,01,38,7.30
2014,12,08,01,39,7.30
2014,12,08,01,40,7.30
2014,12,08,01,41,7.30
2014,12,08,01,42,7.30
2014,12,08,01,43,7.30
2014,12,08,01,44,7.30
2014,12,08,01,45,7.20
2014,12,08,01,46,7.20
2014,12,08,01,47,7.20
2014,12,08,01,48,7.20
2014,12,08,01,49,7.20
2014,12,08,01,50,7.20
2014,12,08,01,51,7.20
2014,12,08,01,52,7.20
2014,12,08,01,53,7.20
2014,12,08,01,54,7.20
2014,12,08,01,55,7.20
2014,12,08,01,56,7.20
2014,12,08,01,57,7.20
2014,12,08,01,58,7.20
2014,12,08,01,59,7.20
2014,12,08,02,00,7.10
2014,12,08,02,01,7.10
2014,12,08,02,02,7.10
2014,12,08,02,03,7.10
2014,12,08,02,04,7.10
2014,12,08,02,05,7.20
2014,12,08,02,06,7.20
2014,12,08,02,07,7.20
2014,12,08,02,08,7.20
2014,12,08,02,09,7.20
2014,12,08,02,10,7.20
2014,12,08,02,11,7.20
2014,12,08,02,12,7.20
2014,12,08,02,13,7.20
2014,12,08,02,14,7.20
2014,12,08,02,15,7.20
2014,12,08,02,16,7.20
2014,12,08,02,17,7.20
2014,12,08,02,18,7.20
2014,12,08,02,19,7.20
2014,12,08,02,20,7.20
2014,12,08,02,21,7.20
2014,12,08,02,22,7.20
2014,12,08,02,23,7.20
2014,12,08,02,24,7.20
2014,12,08,02,25,7.20
2014,12,08,02,26,7.20
2014,12,08,02,27,7.20
2014,12,08,02,28,7.20
2014,12,08,02,29,7.20
2014,12,08,02,30,7.20
2014,12,08,02,31,7.20
2014,12,08,02,32,7.20
2014,12,08,02,33,7.20
2014,12,08,02,34,7.20
2014,12,08,02,35,7.10
2014,12,08,02,36,7.10
2014,12,08,02,37,7.10
2014,12,08,02,38,7.10
2014,12,08,02,39,7.10
2014,12,08,02,40,7.10
2014,12,08,02,41,7.10
2014,12,08,02,42,7.10
2014,12,08,02,43,7.10
2014,12,08,02,44,7.10
2014,12,08,02,45,7.10
2014,12,08,02,46,7.10
2014,12,08,02,47,7.10
2014,12,08,02,48,7.10
2014,12,08,02,49,7.10
2014,12,08,02,50,7.10
2014,12,08,02,51,7.10
2014,12,08,02,52,7.10
2014,12,08,02,53,7.10
2014,12,08,02,54,7.10
2014,12,08,02,55,7.10
2014,12,08,02,56,7.10
2014,12,08,02,57,7.10
2014,12,08,02,58,7.10
2014,12,08,02,59,7.10
2014,12,08,03,00,7.10
2014,12,08,03,01,7.10
2014,12,08,03,02,7.00
2014,12,08,03,03,7.10
2014,12,08,03,04,7.00
2014,12,08,03,05,7.00
2014,12,08,03,06,7.00
2014,12,08,03,07,7.00
2014,12,08,03,08,7.00
2014,12,08,03,09,7.00
2014,12,08,03,10,7.00
2014,12,08,03,11,7.00
2014,12,08,03,12,7.00
2014,12,08,03,13,7.10
2014,12,08,03,14,7.10
2014,12,08,03,15,7.10
2014,12,08,03,16,7.10
2014,12,08,03,17,7.10
2014,12,08,03,18,7.10
2014,12,08,03,19,7.10
2014,12,08,03,20,7.10
2014,12,08,03,21,7.10
2014,12,08,03,22,7.10
2014,12,08,03,23,7.20
2014,12,08,03,24,7.20
2014,12,08,03,25,7.20
2014,12,08,03,26,7.20
2014,12,08,03,27,7.20
2014,12,08,03,28,7.20
2014,12,08,03,29,7.20
2014,12,08,03,30,7.20
2014,12,08,03,31,7.20
2014,12,08,03,32,7.20
2014,12,08,03,33,7.30
2014,12,08,03,34,7.30
2014,12,08,03,35,7.30
2014,12,08,03,36,7.30
2014,12,08,03,37,7.30
2014,12,08,03,38,7.30
2014,12,08,03,39,7.30
2014,12,08,03,40,7.30
2014,12,08,03,41,7.30
2014,12,08,03,42,7.30
2014,12,08,03,43,7.30
2014,12,08,03,44,7.30
2014,12,08,03,45,7.30
2014,12,08,03,46,7.30
2014,12,08,03,47,7.30
2014,12,08,03,48,7.20
2014,12,08,03,49,7.20
2014,12,08,03,50,7.20
2014,12,08,03,51,7.20
2014,12,08,03,52,7.20
2014,12,08,03,53,7.20
2014,12,08,03,54,7.20
2014,12,08,03,55,7.20
2014,12,08,03,56,7.20
2014,12,08,03,57,7.20
2014,12,08,03,58,7.20
2014,12,08,03,59,7.20
2014,12,08,04,00,7.20
2014,12,08,04,01,7.10
2014,12,08,04,02,7.10
2014,12,08,04,03,7.10
2014,12,08,04,04,7.10
2014,12,08,04,05,7.10
2014,12,08,04,06,7.10
2014,12,08,04,07,7.10
2014,12,08,04,08,7.10
2014,12,08,04,09,7.10
2014,12,08,04,10,7.10
2014,12,08,04,11,7.10
2014,12,08,04,12,7.00
2014,12,08,04,13,7.00
2014,12,08,04,14,7.00
2014,12,08,04,15,7.00
2014,12,08,04,16,7.00
2014,12,08,04,17,6.90
2014,12,08,04,18,6.90
2014,12,08,04,19,6.90
2014,12,08,04,20,6.90
2014,12,08,04,21,6.90
2014,12,08,04,22,6.90
2014,12,08,04,23,6.90
2014,12,08,04,24,6.90
2014,12,08,04,25,6.90
2014,12,08,04,26,6.90
2014,12,08,04,27,6.90
2014,12,08,04,28,6.90
2014,12,08,04,29,6.90
2014,12,08,04,30,6.90
2014,12,08,04,31,6.80
2014,12,08,04,32,6.80
2014,12,08,04,33,6.80
2014,12,08,04,34,6.80
2014,12,08,04,35,6.80
2014,12,08,04,36,6.80
2014,12,08,04,37,6.80
2014,12,08,04,38,6.80
2014,12,08,04,39,6.80
2014,12,08,04,40,6.80
2014,12,08,04,41,6.80
2014,12,08,04,42,6.80
2014,12,08,04,43,6.80
2014,12,08,04,44,6.80
2014,12,08,04,45,6.80
2014,12,08,04,46,6.80
2014,12,08,04,47,6.80
2014,12,08,04,48,6.80
2014,12,08,04,49,6.80
2014,12,08,04,50,6.80
2014,12,08,04,51,6.80
2014,12,08,04,52,6.80
2014,12,08,04,53,6.80
2014,12,08,04,54,6.80
2014,12,08,04,55,6.80
2014,12,08,04,56,6.80
2014,12,08,04,57,6.80
2014,12,08,04,58,6.80
2014,12,08,04,59,6.80
2014,12,08,05,00,6.80
2014,12,08,05,01,6.80
2014,12,08,05,02,6.80
2014,12,08,05,03,6.80
2014,12,08,05,04,6.80
2014,12,08,05,05,6.80
2014,12,08,05,06,6.80
2014,12,08,05,07,6.70
2014,12,08,05,08,6.70
2014,12,08,05,09,6.70
2014,12,08,05,10,6.70
2014,12,08,05,11,6.70
2014,12,08,05,12,6.60
2014,12,08,05,13,6.60
2014,12,08,05,14,6.60
2014,12,08,05,15,6.60
2014,12,08,05,16,6.50
2014,12,08,05,17,6.50
2014,12,08,05,18,6.50
2014,12,08,05,19,6.50
2014,12,08,05,20,6.40
2014,12,08,05,21,6.40
2014,12,08,05,22,6.40
2014,12,08,05,23,6.40
2014,12,08,05,24,6.40
2014,12,08,05,25,6.40
2014,12,08,05,26,6.40
2014,12,08,05,27,6.40
2014,12,08,05,28,6.40
2014,12,08,05,29,6.40
2014,12,08,05,30,6.40
2014,12,08,05,31,6.40
2014,12,08,05,32,6.40
2014,12,08,05,33,6.40
2014,12,08,05,34,6.40
2014,12,08,05,35,6.40
2014,12,08,05,36,6.40
2014,12,08,05,37,6.40
2014,12,08,05,38,6.40
2014,12,08,05,39,6.40
2014,12,08,05,40,6.40
2014,12,08,05,41,6.40
2014,12,08,05,42,6.30
2014,12,08,05,43,6.30
2014,12,08,05,44,6.30
2014,12,08,05,45,6.30
2014,12,08,05,46,6.30
2014,12,08,05,47,6.30
2014,12,08,05,48,6.30
2014,12,08,05,49,6.30
2014,12,08,05,50,6.30
2014,12,08,05,51,6.30
2014,12,08,05,52,6.30
2014,12,08,05,53,6.20
2014,12,08,05,54,6.20
2014,12,08,05,55,6.20
2014,12,08,05,56,6.20
2014,12,08,05,57,6.20
2014,12,08,05,58,6.20
2014,12,08,05,59,6.20
2014,12,08,06,00,6.20
2014,12,08,06,01,6.20
2014,12,08,06,02,6.20
2014,12,08,06,03,6.20
2014,12,08,06,04,6.10
2014,12,08,06,05,6.10
2014,12,08,06,06,6.10
2014,12,08,06,07,6.10
2014,12,08,06,08,6.10
2014,12,08,06,09,6.10
2014,12,08,06,10,6.10
2014,12,08,06,11,6.00
2014,12,08,06,12,6.00
2014,12,08,06,13,6.00
2014,12,08,06,14,5.90
2014,12,08,06,15,5.90
2014,12,08,06,16,5.90
2014,12,08,06,17,5.80
2014,12,08,06,18,5.80
2014,12,08,06,19,5.80
2014,12,08,06,20,5.80
2014,12,08,06,21,5.80
2014,12,08,06,22,5.80
2014,12,08,06,23,5.70
2014,12,08,06,24,5.70
2014,12,08,06,25,5.70
2014,12,08,06,26,5.70
2014,12,08,06,27,5.60
2014,12,08,06,28,5.60
2014,12,08,06,29,5.60
2014,12,08,06,30,5.60
2014,12,08,06,31,5.60
2014,12,08,06,32,5.60
2014,12,08,06,33,5.60
2014,12,08,06,34,5.60
2014,12,08,06,35,5.60
2014,12,08,06,36,5.60
2014,12,08,06,37,5.60
2014,12,08,06,38,5.60
2014,12,08,06,39,5.60
2014,12,08,06,40,5.70
2014,12,08,06,41,5.70
2014,12,08,06,42,5.70
2014,12,08,06,43,5.70
2014,12,08,06,44,5.70
2014,12,08,06,45,5.70
2014,12,08,06,46,5.70
2014,12,08,06,47,5.80
2014,12,08,06,48,5.80
2014,12,08,06,49,5.80
2014,12,08,06,50,5.70
2014,12,08,06,51,5.70
2014,12,08,06,52,5.70
2014,12,08,06,53,5.70
2014,12,08,06,54,5.70
2014,12,08,06,55,5.70
2014,12,08,06,56,5.70
2014,12,08,06,57,5.70
2014,12,08,06,58,5.70
2014,12,08,06,59,5.70
2014,12,08,07,00,5.70
2014,12,08,07,01,5.70
2014,12,08,07,02,5.70
2014,12,08,07,03,5.70
2014,12,08,07,04,5.70
2014,12,08,07,05,5.70
2014,12,08,07,06,5.70
2014,12,08,07,07,5.70
2014,12,08,07,08,5.70
2014,12,08,07,09,5.70
2014,12,08,07,10,5.70
2014,12,08,07,11,5.70
2014,12,08,07,12,5.70
2014,12,08,07,13,5.60
2014,12,08,07,14,5.60
2014,12,08,07,15,5.60
2014,12,08,07,16,5.60
2014,12,08,07,17,5.60
2014,12,08,07,18,5.50
2014,12,08,07,19,5.50
2014,12,08,07,20,5.50
2014,12,08,07,21,5.50
2014,12,08,07,22,5.50
2014,12,08,07,23,5.50
2014,12,08,07,24,5.50
2014,12,08,07,25,5.50
2014,12,08,07,26,5.50
2014,12,08,07,27,5.60
2014,12,08,07,28,5.60
2014,12,08,07,29,5.60
2014,12,08,07,30,5.60
2014,12,08,07,31,5.60
2014,12,08,07,32,5.60
2014,12,08,07,33,5.60
2014,12,08,07,34,5.60
2014,12,08,07,35,5.60
2014,12,08,07,36,5.60
2014,12,08,07,37,5.60
2014,12,08,07,38,5.60
2014,12,08,07,39,5.60
2014,12,08,07,40,5.60
2014,12,08,07,41,5.70
2014,12,08,07,42,5.70
2014,12,08,07,43,5.70
2014,12,08,07,44,5.70
2014,12,08,07,45,5.70
2014,12,08,07,46,5.70
2014,12,08,07,47,5.70
2014,12,08,07,48,5.70
2014,12,08,07,49,5.70
2014,12,08,07,50,5.80
2014,12,08,07,51,5.80
2014,12,08,07,52,5.80
2014,12,08,07,53,5.80
2014,12,08,07,54,5.80
2014,12,08,07,55,5.80
2014,12,08,07,56,5.90
2014,12,08,07,57,5.90
2014,12,08,07,58,5.90
2014,12,08,07,59,5.90
2014,12,08,08,00,5.90
2014,12,08,08,01,6.00
2014,12,08,08,02,6.00
2014,12,08,08,03,6.10
2014,12,08,08,04,6.10
2014,12,08,08,05,6.10
2014,12,08,08,06,6.20
2014,12,08,08,07,6.20
2014,12,08,08,08,6.30
2014,12,08,08,09,6.30
2014,12,08,08,10,6.40
2014,12,08,08,11,6.40
2014,12,08,08,12,6.50
2014,12,08,08,13,6.50
2014,12,08,08,14,6.50
2014,12,08,08,15,6.60
2014,12,08,08,16,6.60
2014,12,08,08,17,6.60
2014,12,08,08,18,6.60
2014,12,08,08,19,6.60
2014,12,08,08,20,6.60
2014,12,08,08,21,6.70
2014,12,08,08,22,6.70
2014,12,08,08,23,6.70
2014,12,08,08,24,6.70
2014,12,08,08,25,6.70
2014,12,08,08,26,6.70
2014,12,08,08,27,6.80
2014,12,08,08,28,6.80
2014,12,08,08,29,6.80
2014,12,08,08,30,6.80
2014,12,08,08,31,6.80
2014,12,08,08,32,6.80
2014,12,08,08,33,6.90
2014,12,08,08,34,6.90
2014,12,08,08,35,6.90
2014,12,08,08,36,6.90
2014,12,08,08,37,6.90
2014,12,08,08,38,6.90
2014,12,08,08,39,6.90
2014,12,08,08,40,6.90
2014,12,08,08,41,6.90
2014,12,08,08,42,6.90
2014,12,08,08,43,6.90
2014,12,08,08,44,6.90
2014,12,08,08,45,7.00
2014,12,08,08,46,7.00
2014,12,08,08,47,7.00
2014,12,08,08,48,7.00
2014,12,08,08,49,7.00
2014,12,08,08,50,7.10
2014,12,08,08,51,7.10
2014,12,08,08,52,7.10
2014,12,08,08,53,7.10
2014,12,08,08,54,7.10
2014,12,08,08,55,7.10
2014,12,08,08,56,7.10
2014,12,08,08,57,7.10
2014,12,08,08,58,7.10
2014,12,08,08,59,7.10
2014,12,08,09,00,7.10
2014,12,08,09,01,7.10
2014,12,08,09,02,7.10
2014,12,08,09,03,7.10
2014,12,08,09,04,7.10
2014,12,08,09,05,7.10
2014,12,08,09,06,7.10
2014,12,08,09,07,7.10
2014,12,08,09,08,7.20
2014,12,08,09,09,7.10
2014,12,08,09,10,7.10
2014,12,08,09,11,7.10
2014,12,08,09,12,7.10
2014,12,08,09,13,7.10
2014,12,08,09,14,7.10
2014,12,08,09,15,7.20
2014,12,08,09,16,7.20
2014,12,08,09,17,7.20
2014,12,08,09,18,7.20
2014,12,08,09,19,7.20
2014,12,08,09,20,7.30
2014,12,08,09,21,7.30
2014,12,08,09,22,7.30
2014,12,08,09,23,7.30
2014,12,08,09,24,7.30
2014,12,08,09,25,7.40
2014,12,08,09,26,7.40
2014,12,08,09,27,7.40
2014,12,08,09,28,7.40
2014,12,08,09,29,7.40
2014,12,08,09,30,7.40
2014,12,08,09,31,7.40
2014,12,08,09,32,7.40
2014,12,08,09,33,7.40
2014,12,08,09,34,7.40
2014,12,08,09,35,7.40
2014,12,08,09,36,7.40
2014,12,08,09,37,7.40
2014,12,08,09,38,7.40
2014,12,08,09,39,7.40
2014,12,08,09,40,7.50
2014,12,08,09,41,7.50
2014,12,08,09,42,7.50
2014,12,08,09,43,7.50
2014,12,08,09,44,7.60
2014,12,08,09,45,7.60
2014,12,08,09,46,7.70
2014,12,08,09,47,7.70
2014,12,08,09,48,7.80
2014,12,08,09,49,7.80
2014,12,08,09,50,7.80
2014,12,08,09,51,7.90
2014,12,08,09,52,7.90
2014,12,08,09,53,7.90
2014,12,08,09,54,7.90
2014,12,08,09,55,7.90
2014,12,08,09,56,7.90
2014,12,08,09,57,7.90
2014,12,08,09,58,7.90
2014,12,08,09,59,7.90
2014,12,08,10,00,7.90
2014,12,08,10,01,7.90
2014,12,08,10,02,7.90
2014,12,08,10,03,7.90
2014,12,08,10,04,7.90
2014,12,08,10,05,7.90
2014,12,08,10,06,7.90
2014,12,08,10,07,7.90
2014,12,08,10,08,7.90
2014,12,08,10,09,7.90
2014,12,08,10,10,7.90
2014,12,08,10,11,8.00
2014,12,08,10,12,8.00
2014,12,08,10,13,8.00
2014,12,08,10,14,8.00
2014,12,08,10,15,8.10
2014,12,08,10,16,8.10
2014,12,08,10,17,8.10
2014,12,08,10,18,8.10
2014,12,08,10,19,8.10
2014,12,08,10,20,8.20
2014,12,08,10,21,8.20
2014,12,08,10,22,8.20
2014,12,08,10,23,8.20
2014,12,08,10,24,8.30
2014,12,08,10,25,8.30
2014,12,08,10,26,8.30
2014,12,08,10,27,8.30
2014,12,08,10,28,8.40
2014,12,08,10,29,8.40
2014,12,08,10,30,8.40
2014,12,08,10,31,8.40
2014,12,08,10,32,8.50
2014,12,08,10,33,8.50
2014,12,08,10,34,8.50
2014,12,08,10,35,8.50
2014,12,08,10,36,8.60
2014,12,08,10,37,8.60
2014,12,08,10,38,8.60
2014,12,08,10,39,8.60
2014,12,08,10,40,8.60
2014,12,08,10,41,8.60
2014,12,08,10,42,8.60
2014,12,08,10,43,8.60
2014,12,08,10,44,8.60
2014,12,08,10,45,8.60
2014,12,08,10,46,8.60
2014,12,08,10,47,8.70
2014,12,08,10,48,8.70
2014,12,08,10,49,8.70
2014,12,08,10,50,8.70
2014,12,08,10,51,8.70
2014,12,08,10,52,8.70
2014,12,08,10,53,8.70
2014,12,08,10,54,8.70
2014,12,08,10,55,8.70
2014,12,08,10,56,8.80
2014,12,08,10,57,8.80
2014,12,08,10,58,8.80
2014,12,08,10,59,8.80
2014,12,08,11,00,8.80
2014,12,08,11,01,8.80
2014,12,08,11,02,8.80
2014,12,08,11,03,8.80
2014,12,08,11,04,8.80
2014,12,08,11,05,8.90
2014,12,08,11,06,8.90
2014,12,08,11,07,8.90
2014,12,08,11,08,8.90
2014,12,08,11,09,8.90
2014,12,08,11,10,8.90
2014,12,08,11,11,8.90
2014,12,08,11,12,8.90
2014,12,08,11,13,8.90
2014,12,08,11,14,8.90
2014,12,08,11,15,8.90
2014,12,08,11,16,8.90
2014,12,08,11,17,8.90
2014,12,08,11,18,8.90
2014,12,08,11,19,9.00
2014,12,08,11,20,9.00
2014,12,08,11,21,9.00
2014,12,08,11,22,9.00
2014,12,08,11,23,9.10
2014,12,08,11,24,9.10
2014,12,08,11,25,9.10
2014,12,08,11,26,9.10
2014,12,08,11,27,9.10
2014,12,08,11,28,9.10
2014,12,08,11,29,9.10
2014,12,08,11,30,9.10
2014,12,08,11,31,9.20
2014,12,08,11,32,9.20
2014,12,08,11,33,9.20
2014,12,08,11,34,9.20
2014,12,08,11,35,9.20
2014,12,08,11,36,9.20
2014,12,08,11,37,9.20
2014,12,08,11,38,9.20
2014,12,08,11,39,9.30
2014,12,08,11,40,9.30
2014,12,08,11,41,9.30
2014,12,08,11,42,9.30
2014,12,08,11,43,9.30
2014,12,08,11,44,9.40
2014,12,08,11,45,9.40
2014,12,08,11,46,9.40
2014,12,08,11,47,9.40
2014,12,08,11,48,9.50
2014,12,08,11,49,9.50
2014,12,08,11,50,9.50
2014,12,08,11,51,9.60
2014,12,08,11,52,9.60
2014,12,08,11,53,9.60
2014,12,08,11,54,9.60
2014,12,08,11,55,9.60
2014,12,08,11,56,9.70
2014,12,08,11,57,9.70
2014,12,08,11,58,9.70
2014,12,08,11,59,9.80
2014,12,08,12,00,9.80
2014,12,08,12,01,9.80
2014,12,08,12,02,9.90
2014,12,08,12,03,9.90
2014,12,08,12,04,9.90
2014,12,08,12,05,10.00
2014,12,08,12,06,10.00
2014,12,08,12,07,10.10
2014,12,08,12,08,10.10
2014,12,08,12,09,10.20
2014,12,08,12,10,10.20
2014,12,08,12,11,10.20
2014,12,08,12,12,10.20
2014,12,08,12,13,10.30
2014,12,08,12,14,10.30
2014,12,08,12,15,10.30
2014,12,08,12,16,10.30
2014,12,08,12,17,10.30
2014,12,08,12,18,10.40
2014,12,08,12,19,10.40
2014,12,08,12,20,10.40
2014,12,08,12,21,10.40
2014,12,08,12,22,10.40
2014,12,08,12,23,10.40
2014,12,08,12,24,10.40
2014,12,08,12,25,10.40
2014,12,08,12,26,10.40
2014,12,08,12,27,10.50
2014,12,08,12,28,10.40
2014,12,08,12,29,10.40
2014,12,08,12,30,10.40
2014,12,08,12,31,10.40
2014,12,08,12,32,10.40
2014,12,08,12,33,10.40
2014,12,08,12,34,10.40
2014,12,08,12,35,10.40
2014,12,08,12,36,10.40
2014,12,08,12,37,10.40
2014,12,08,12,38,10.50
2014,12,08,12,39,10.50
2014,12,08,12,40,10.50
2014,12,08,12,41,10.60
2014,12,08,12,42,10.60
2014,12,08,12,43,10.60
2014,12,08,12,44,10.60
2014,12,08,12,45,10.60
2014,12,08,12,46,10.60
2014,12,08,12,47,10.60
2014,12,08,12,48,10.60
2014,12,08,12,49,10.60
2014,12,08,12,50,10.60
2014,12,08,12,51,10.60
2014,12,08,12,52,10.60
2014,12,08,12,53,10.60
2014,12,08,12,54,10.60
2014,12,08,12,55,10.60
2014,12,08,12,56,10.60
2014,12,08,12,57,10.60
2014,12,08,12,58,10.60
2014,12,08,12,59,10.60
2014,12,08,13,00,10.60
2014,12,08,13,01,10.60
2014,12,08,13,02,10.60
2014,12,08,13,03,10.60
2014,12,08,13,04,10.60
2014,12,08,13,05,10.60
2014,12,08,13,06,10.60
2014,12,08,13,07,10.60
2014,12,08,13,08,10.60
2014,12,08,13,09,10.60
2014,12,08,13,10,10.60
2014,12,08,13,11,10.60
2014,12,08,13,12,10.60
2014,12,08,13,13,10.60
2014,12,08,13,14,10.60
2014,12,08,13,15,10.60
2014,12,08,13,16,10.60
2014,12,08,13,17,10.60
2014,12,08,13,18,10.60
2014,12,08,13,19,10.60
2014,12,08,13,20,10.60
2014,12,08,13,21,10.60
2014,12,08,13,22,10.60
2014,12,08,13,23,10.60
2014,12,08,13,24,10.60
2014,12,08,13,25,10.60
2014,12,08,13,26,10.60
2014,12,08,13,27,10.50
2014,12,08,13,28,10.50
2014,12,08,13,29,10.50
2014,12,08,13,30,10.50
2014,12,08,13,31,10.50
2014,12,08,13,32,10.50
2014,12,08,13,33,10.50
2014,12,08,13,34,10.50
2014,12,08,13,35,10.50
2014,12,08,13,36,10.50
2014,12,08,13,37,10.40
2014,12,08,13,38,10.40
2014,12,08,13,39,10.40
2014,12,08,13,40,10.30
2014,12,08,13,41,10.30
2014,12,08,13,42,10.30
2014,12,08,13,43,10.30
2014,12,08,13,44,10.20
2014,12,08,13,45,10.20
2014,12,08,13,46,10.20
2014,12,08,13,47,10.20
2014,12,08,13,48,10.20
2014,12,08,13,49,10.10
2014,12,08,13,50,10.10
2014,12,08,13,51,10.10
2014,12,08,13,52,10.10
2014,12,08,13,53,10.10
2014,12,08,13,54,10.00
2014,12,08,13,55,10.00
2014,12,08,13,56,10.00
2014,12,08,13,57,9.90
2014,12,08,13,58,9.90
2014,12,08,13,59,9.90
2014,12,08,14,00,9.90
2014,12,08,14,01,9.90
2014,12,08,14,02,9.90
2014,12,08,14,03,9.90
2014,12,08,14,04,9.90
2014,12,08,14,05,9.80
2014,12,08,14,06,9.80
2014,12,08,14,07,9.80
2014,12,08,14,08,9.80
2014,12,08,14,09,9.80
2014,12,08,14,10,9.80
2014,12,08,14,11,9.80
2014,12,08,14,12,9.70
2014,12,08,14,13,9.70
2014,12,08,14,14,9.70
2014,12,08,14,15,9.70
2014,12,08,14,16,9.70
2014,12,08,14,17,9.70
2014,12,08,14,18,9.70
2014,12,08,14,19,9.70
2014,12,08,14,20,9.70
2014,12,08,14,21,9.70
2014,12,08,14,22,9.70
2014,12,08,14,23,9.60
2014,12,08,14,24,9.60
2014,12,08,14,25,9.60
2014,12,08,14,26,9.60
2014,12,08,14,27,9.60
2014,12,08,14,28,9.60
2014,12,08,14,29,9.60
2014,12,08,14,30,9.60
2014,12,08,14,31,9.60
2014,12,08,14,32,9.60
2014,12,08,14,33,9.60
2014,12,08,14,34,9.60
2014,12,08,14,35,9.60
2014,12,08,14,36,9.60
2014,12,08,14,37,9.60
2014,12,08,14,38,9.60
2014,12,08,14,39,9.60
2014,12,08,14,40,9.60
2014,12,08,14,41,9.60
2014,12,08,14,42,9.60
2014,12,08,14,43,9.60
2014,12,08,14,44,9.60
2014,12,08,14,45,9.60
2014,12,08,14,46,9.60
2014,12,08,14,47,9.60
2014,12,08,14,48,9.60
2014,12,08,14,49,9.60
2014,12,08,14,50,9.60
2014,12,08,14,51,9.60
2014,12,08,14,52,9.60
2014,12,08,14,53,9.60
2014,12,08,14,54,9.60
2014,12,08,14,55,9.60
2014,12,08,14,56,9.60
2014,12,08,14,57,9.60
2014,12,08,14,58,9.60
2014,12,08,14,59,9.60
2014,12,08,15,00,9.60
2014,12,08,15,01,9.60
2014,12,08,15,02,9.60
2014,12,08,15,03,9.60
2014,12,08,15,04,9.60
2014,12,08,15,05,9.60
2014,12,08,15,06,9.60
2014,12,08,15,07,9.60
2014,12,08,15,08,9.60
2014,12,08,15,09,9.60
2014,12,08,15,10,9.60
2014,12,08,15,11,9.60
2014,12,08,15,12,9.60
2014,12,08,15,13,9.60
2014,12,08,15,14,9.60
2014,12,08,15,15,9.60
2014,12,08,15,16,9.60
2014,12,08,15,17,9.50
2014,12,08,15,18,9.50
2014,12,08,15,19,9.50
2014,12,08,15,20,9.50
2014,12,08,15,21,9.50
2014,12,08,15,22,9.50
2014,12,08,15,23,9.50
2014,12,08,15,24,9.50
2014,12,08,15,25,9.50
2014,12,08,15,26,9.40
2014,12,08,15,27,9.40
2014,12,08,15,28,9.40
2014,12,08,15,29,9.40
2014,12,08,15,30,9.40
2014,12,08,15,31,9.40
2014,12,08,15,32,9.30
2014,12,08,15,33,9.30
2014,12,08,15,34,9.30
2014,12,08,15,35,9.30
2014,12,08,15,36,9.30
2014,12,08,15,37,9.30
2014,12,08,15,38,9.30
2014,12,08,15,39,9.30
2014,12,08,15,40,9.30
2014,12,08,15,41,9.30
2014,12,08,15,42,9.30
2014,12,08,15,43,9.30
2014,12,08,15,44,9.30
2014,12,08,15,45,9.30
2014,12,08,15,46,9.20
2014,12,08,15,47,9.20
2014,12,08,15,48,9.20
2014,12,08,15,49,9.20
2014,12,08,15,50,9.20
2014,12,08,15,51,9.20
2014,12,08,15,52,9.20
2014,12,08,15,53,9.20
2014,12,08,15,54,9.20
2014,12,08,15,55,9.20
2014,12,08,15,56,9.20
2014,12,08,15,57,9.20
2014,12,08,15,58,9.20
2014,12,08,15,59,9.10
2014,12,08,16,00,9.10
2014,12,08,16,01,9.10
2014,12,08,16,02,9.10
2014,12,08,16,03,9.10
2014,12,08,16,04,9.10
2014,12,08,16,05,9.10
2014,12,08,16,06,9.10
2014,12,08,16,07,9.10
2014,12,08,16,08,9.10
2014,12,08,16,09,9.10
2014,12,08,16,10,9.00
2014,12,08,16,11,9.00
2014,12,08,16,12,9.00
2014,12,08,16,13,9.00
2014,12,08,16,14,9.00
2014,12,08,16,15,9.00
2014,12,08,16,16,9.00
2014,12,08,16,17,8.90
2014,12,08,16,18,8.90
2014,12,08,16,19,8.90
2014,12,08,16,20,8.90
2014,12,08,16,21,8.90
2014,12,08,16,22,8.90
2014,12,08,16,23,8.90
2014,12,08,16,24,8.90
2014,12,08,16,25,8.90
2014,12,08,16,26,8.90
2014,12,08,16,27,8.90
2014,12,08,16,28,8.80
2014,12,08,16,29,8.80
2014,12,08,16,30,8.80
2014,12,08,16,31,8.80
2014,12,08,16,32,8.80
2014,12,08,16,33,8.80
2014,12,08,16,34,8.80
2014,12,08,16,35,8.80
2014,12,08,16,36,8.80
2014,12,08,16,37,8.80
2014,12,08,16,38,8.80
2014,12,08,16,39,8.80
2014,12,08,16,40,8.80
2014,12,08,16,41,8.80
2014,12,08,16,42,8.80
2014,12,08,16,43,8.80
2014,12,08,16,44,8.80
2014,12,08,16,45,8.80
2014,12,08,16,46,8.80
2014,12,08,16,47,8.80
2014,12,08,16,48,8.80
2014,12,08,16,49,8.80
2014,12,08,16,50,8.80
2014,12,08,16,51,8.80
2014,12,08,16,52,8.80
2014,12,08,16,53,8.70
2014,12,08,16,54,8.70
2014,12,08,16,55,8.70
2014,12,08,16,56,8.70
2014,12,08,16,57,8.70
2014,12,08,16,58,8.80
2014,12,08,16,59,8.70
2014,12,08,17,00,8.80
2014,12,08,17,01,8.80
2014,12,08,17,02,8.80
2014,12,08,17,03,8.80
2014,12,08,17,04,8.80
2014,12,08,17,05,8.70
2014,12,08,17,06,8.70
2014,12,08,17,07,8.70
2014,12,08,17,08,8.70
2014,12,08,17,09,8.70
2014,12,08,17,10,8.70
2014,12,08,17,11,8.70
2014,12,08,17,12,8.70
2014,12,08,17,13,8.70
2014,12,08,17,14,8.80
2014,12,08,17,15,8.80
2014,12,08,17,16,8.80
2014,12,08,17,17,8.80
2014,12,08,17,18,8.80
2014,12,08,17,19,8.80
2014,12,08,17,20,8.80
2014,12,08,17,21,8.80
2014,12,08,17,22,8.80
2014,12,08,17,23,8.80
2014,12,08,17,24,8.80
2014,12,08,17,25,8.80
2014,12,08,17,26,8.80
2014,12,08,17,27,8.80
2014,12,08,17,28,8.80
2014,12,08,17,29,8.80
2014,12,08,17,30,8.80
2014,12,08,17,31,8.80
2014,12,08,17,32,8.80
2014,12,08,17,33,8.80
2014,12,08,17,34,8.80
2014,12,08,17,35,8.80
2014,12,08,17,36,8.80
2014,12,08,17,37,8.80
2014,12,08,17,38,8.80
2014,12,08,17,39,8.80
2014,12,08,17,40,8.90
2014,12,08,17,41,8.90
2014,12,08,17,42,8.90
2014,12,08,17,43,9.00
2014,12,08,17,44,9.00
2014,12,08,17,45,9.00
2014,12,08,17,46,9.10
2014,12,08,17,47,9.10
2014,12,08,17,48,9.10
2014,12,08,17,49,9.20
2014,12,08,17,50,9.20
2014,12,08,17,51,9.30
2014,12,08,17,52,9.40
2014,12,08,17,53,9.50
2014,12,08,17,54,9.50
2014,12,08,17,55,9.60
2014,12,08,17,56,9.70
2014,12,08,17,57,9.70
2014,12,08,17,58,9.70
2014,12,08,17,59,9.80
2014,12,08,18,00,9.80
2014,12,08,18,01,9.80